Flag for Greece Weather past 2 weeks in Kallithea, Greece

Now
84 °F

Clear.


Feels Like: 83 °F
Forecast: 80 / 92 °F
Wind: 12 mph from Northwest

Location: Elefsis Airport

Current Time: Aug 2, 2015 at 1:41:36 AM

Latest Report: Aug 2, 2015 at 12:20 AM


Visibility: 10 mi

Pressure: 29.95 "Hg

Humidity: 40%

Dew point: 57 °F

Location of KallitheaLocation

Historic Weather in Kallithea — Graph

°F

Kallithea temperature yesterday

Maximum temperature yesterday: 99 °F (at 2:50 PM)
Minimum temperature yesterday: 84 °F (at 4:50 AM)
Average temperature yesterday: 90 °F

Past Weeks' High & Low Weather Summary

 TemperatureHumidityPressure
High104 °F (Jul 31, 2:50 PM)73% (Jul 25, 5:20 AM)29.98 "Hg (Jul 25, 5:20 AM)
Low70 °F (Jul 25, 4:20 AM)10% (Jul 21, 12:20 AM)29.68 "Hg (Jul 27, 2:50 PM)
Average87 °F36%29.78 "Hg
* Reported Jul 17 11:20 PM — Aug 1 11:50 PM, Kallithea, Weather by CustomWeather, © 2015

Note: Actual official high and low records may vary slightly from our data, if they occured in-between our weather recording intervals... More about our weather records

Advertising

Kallithea weather history for previous 24 hours

 ConditionsComfort  
Time TempWeatherWind HumidityBarometerVisibility
11:50 PM
Sat, Aug 1
86 °FClear.9 mph35%29.95 "Hg10 mi
11:20 PM86 °FClear.12 mph38%29.95 "Hg10 mi
10:50 PM86 °FClear.12 mph35%29.92 "Hg10 mi
10:20 PM88 °FClear.6 mph31%29.92 "Hg10 mi
9:50 PM88 °FClear.6 mph31%29.92 "Hg10 mi
9:20 PM90 °FSunny.12 mph27%29.89 "Hg10 mi
8:50 PM90 °FSunny.12 mph27%29.89 "Hg10 mi
8:20 PM90 °FSunny.12 mph29%29.89 "Hg10 mi
7:50 PM91 °FSunny.12 mph28%29.89 "Hg10 mi
7:20 PM93 °FSunny.12 mph26%29.86 "Hg10 mi
6:50 PM95 °FSunny.12 mph25%29.86 "Hg10 mi
5:50 PM97 °FSunny.14 mph25%29.86 "Hg10 mi
5:20 PM99 °FSunny.16 mph24%29.86 "Hg10 mi
4:50 PM99 °FSunny.16 mph22%29.86 "Hg10 mi
4:20 PM99 °FSunny.12 mph24%29.86 "Hg10 mi
3:50 PM97 °FSunny.16 mph25%29.86 "Hg10 mi
3:20 PM99 °FSunny.9 mph22%29.86 "Hg10 mi
2:50 PM99 °FSunny.12 mph22%29.89 "Hg10 mi
2:20 PM97 °FSunny.14 mph23%29.89 "Hg10 mi
1:50 PM97 °FSunny.14 mph23%29.86 "Hg10 mi
1:20 PM97 °FSunny.14 mph25%29.86 "Hg10 mi
12:50 PM95 °FSunny.14 mph30%29.86 "Hg10 mi
12:20 PM95 °FSunny.12 mph30%29.89 "Hg10 mi
11:50 AM93 °FSunny.9 mph32%29.89 "Hg10 mi
11:20 AM93 °FSunny.12 mph32%29.86 "Hg10 mi
10:50 AM93 °FSunny.12 mph32%29.86 "Hg10 mi
10:20 AM91 °FSunny.12 mph34%29.86 "Hg10 mi
9:50 AM90 °FSunny.12 mph38%29.86 "Hg10 mi
8:50 AM86 °FSunny.14 mph46%29.86 "Hg10 mi
8:20 AM84 °FSunny.14 mph48%29.86 "Hg10 mi
7:50 AM84 °FSunny.14 mph48%29.83 "Hg10 mi
7:20 AM84 °FClear.12 mph48%29.83 "Hg10 mi
6:50 AM84 °FPassing clouds.12 mph43%29.83 "HgN/A
6:20 AM84 °FPassing clouds.8 mph37%29.83 "HgN/A
5:50 AM84 °FPassing clouds.6 mph40%29.80 "HgN/A
5:20 AM86 °FPassing clouds.8 mph35%29.80 "HgN/A
4:50 AM84 °FPassing clouds.6 mph37%29.80 "HgN/A
4:20 AM86 °FPassing clouds.12 mph35%29.80 "HgN/A
3:50 AM86 °FPassing clouds.14 mph35%29.80 "HgN/A
3:20 AM86 °FPassing clouds.9 mph33%29.77 "HgN/A
2:50 AM86 °FPassing clouds.10 mph33%29.77 "HgN/A
2:20 AM88 °FPassing clouds.9 mph31%29.80 "HgN/A
1:50 AM86 °FPassing clouds.5 mph33%29.80 "HgN/A
1:20 AM86 °FPassing clouds.5 mph31%29.80 "HgN/A
Weather by CustomWeather, © 2015

See weather overviewHow to use our weather pages